Year,Month,Day,Hour,Minute,Value (Times are PST for temperature in C)
2008,05,24,00,00,10.80
2008,05,24,00,01,10.70
2008,05,24,00,02,10.70
2008,05,24,00,03,10.70
2008,05,24,00,04,10.70
2008,05,24,00,05,10.70
2008,05,24,00,06,10.70
2008,05,24,00,07,10.60
2008,05,24,00,08,10.60
2008,05,24,00,09,10.60
2008,05,24,00,10,10.60
2008,05,24,00,11,10.60
2008,05,24,00,12,10.60
2008,05,24,00,13,10.60
2008,05,24,00,14,10.60
2008,05,24,00,15,10.60
2008,05,24,00,16,10.50
2008,05,24,00,17,10.50
2008,05,24,00,18,10.50
2008,05,24,00,19,10.50
2008,05,24,00,20,10.50
2008,05,24,00,21,10.50
2008,05,24,00,22,10.50
2008,05,24,00,23,10.50
2008,05,24,00,24,10.50
2008,05,24,00,25,10.50
2008,05,24,00,26,10.50
2008,05,24,00,27,10.50
2008,05,24,00,28,10.50
2008,05,24,00,29,10.50
2008,05,24,00,30,10.50
2008,05,24,00,31,10.60
2008,05,24,00,32,10.60
2008,05,24,00,33,10.60
2008,05,24,00,34,10.60
2008,05,24,00,35,10.60
2008,05,24,00,36,10.60
2008,05,24,00,37,10.60
2008,05,24,00,38,10.60
2008,05,24,00,39,10.70
2008,05,24,00,40,10.70
2008,05,24,00,41,10.70
2008,05,24,00,42,10.70
2008,05,24,00,43,10.70
2008,05,24,00,44,10.80
2008,05,24,00,45,10.80
2008,05,24,00,46,10.80
2008,05,24,00,47,10.80
2008,05,24,00,48,10.80
2008,05,24,00,49,10.80
2008,05,24,00,50,10.80
2008,05,24,00,51,10.80
2008,05,24,00,52,10.80
2008,05,24,00,53,10.80
2008,05,24,00,54,10.80
2008,05,24,00,55,10.90
2008,05,24,00,56,10.90
2008,05,24,00,57,10.90
2008,05,24,00,58,10.90
2008,05,24,00,59,10.90
2008,05,24,01,00,10.90
2008,05,24,01,01,10.90
2008,05,24,01,02,10.90
2008,05,24,01,03,10.90
2008,05,24,01,04,10.90
2008,05,24,01,05,10.90
2008,05,24,01,06,10.90
2008,05,24,01,07,10.90
2008,05,24,01,08,10.90
2008,05,24,01,09,10.90
2008,05,24,01,10,10.90
2008,05,24,01,11,10.90
2008,05,24,01,12,10.90
2008,05,24,01,13,10.90
2008,05,24,01,14,10.90
2008,05,24,01,15,10.90
2008,05,24,01,16,11.00
2008,05,24,01,17,11.00
2008,05,24,01,18,11.00
2008,05,24,01,19,11.00
2008,05,24,01,20,11.00
2008,05,24,01,21,11.00
2008,05,24,01,22,11.00
2008,05,24,01,23,11.00
2008,05,24,01,24,11.00
2008,05,24,01,25,11.00
2008,05,24,01,26,11.00
2008,05,24,01,27,11.10
2008,05,24,01,28,11.10
2008,05,24,01,29,11.10
2008,05,24,01,30,11.10
2008,05,24,01,31,11.10
2008,05,24,01,32,11.20
2008,05,24,01,33,11.20
2008,05,24,01,34,11.20
2008,05,24,01,35,11.20
2008,05,24,01,36,11.20
2008,05,24,01,37,11.20
2008,05,24,01,38,11.20
2008,05,24,01,39,11.20
2008,05,24,01,40,11.20
2008,05,24,01,41,11.20
2008,05,24,01,42,11.20
2008,05,24,01,43,11.20
2008,05,24,01,44,11.20
2008,05,24,01,45,11.20
2008,05,24,01,46,11.20
2008,05,24,01,47,11.20
2008,05,24,01,48,11.20
2008,05,24,01,49,11.20
2008,05,24,01,50,11.20
2008,05,24,01,51,11.20
2008,05,24,01,52,11.20
2008,05,24,01,53,11.20
2008,05,24,01,54,11.20
2008,05,24,01,55,11.20
2008,05,24,01,56,11.20
2008,05,24,01,57,11.20
2008,05,24,01,58,11.20
2008,05,24,01,59,11.20
2008,05,24,02,00,11.20
2008,05,24,02,01,11.20
2008,05,24,02,02,11.20
2008,05,24,02,03,11.20
2008,05,24,02,04,11.20
2008,05,24,02,05,11.20
2008,05,24,02,06,11.20
2008,05,24,02,07,11.10
2008,05,24,02,08,11.10
2008,05,24,02,09,11.10
2008,05,24,02,10,11.10
2008,05,24,02,11,11.00
2008,05,24,02,12,11.00
2008,05,24,02,13,11.00
2008,05,24,02,14,11.00
2008,05,24,02,15,10.90
2008,05,24,02,16,10.90
2008,05,24,02,17,10.90
2008,05,24,02,18,10.90
2008,05,24,02,19,10.90
2008,05,24,02,20,10.90
2008,05,24,02,21,10.90
2008,05,24,02,22,10.90
2008,05,24,02,23,10.90
2008,05,24,02,24,10.90
2008,05,24,02,25,10.90
2008,05,24,02,26,10.90
2008,05,24,02,27,11.00
2008,05,24,02,28,11.00
2008,05,24,02,29,11.00
2008,05,24,02,30,11.00
2008,05,24,02,31,11.00
2008,05,24,02,32,11.00
2008,05,24,02,33,11.00
2008,05,24,02,34,11.10
2008,05,24,02,35,11.10
2008,05,24,02,36,11.10
2008,05,24,02,37,11.10
2008,05,24,02,38,11.10
2008,05,24,02,39,11.10
2008,05,24,02,40,11.20
2008,05,24,02,41,11.20
2008,05,24,02,42,11.20
2008,05,24,02,43,11.20
2008,05,24,02,44,11.30
2008,05,24,02,45,11.30
2008,05,24,02,46,11.30
2008,05,24,02,47,11.30
2008,05,24,02,48,11.30
2008,05,24,02,49,11.30
2008,05,24,02,50,11.30
2008,05,24,02,51,11.30
2008,05,24,02,52,11.30
2008,05,24,02,53,11.30
2008,05,24,02,54,11.30
2008,05,24,02,55,11.30
2008,05,24,02,56,11.30
2008,05,24,02,57,11.30
2008,05,24,02,58,11.30
2008,05,24,02,59,11.30
2008,05,24,03,00,11.30
2008,05,24,03,01,11.30
2008,05,24,03,02,11.30
2008,05,24,03,03,11.30
2008,05,24,03,04,11.30
2008,05,24,03,05,11.30
2008,05,24,03,06,11.30
2008,05,24,03,07,11.30
2008,05,24,03,08,11.30
2008,05,24,03,09,11.30
2008,05,24,03,10,11.30
2008,05,24,03,11,11.30
2008,05,24,03,12,11.30
2008,05,24,03,13,11.30
2008,05,24,03,14,11.30
2008,05,24,03,15,11.30
2008,05,24,03,16,11.30
2008,05,24,03,17,11.30
2008,05,24,03,18,11.30
2008,05,24,03,19,11.20
2008,05,24,03,20,11.20
2008,05,24,03,21,11.20
2008,05,24,03,22,11.20
2008,05,24,03,23,11.10
2008,05,24,03,24,11.10
2008,05,24,03,25,11.00
2008,05,24,03,26,11.00
2008,05,24,03,27,10.90
2008,05,24,03,28,10.90
2008,05,24,03,29,10.90
2008,05,24,03,30,10.80
2008,05,24,03,31,10.80
2008,05,24,03,32,10.80
2008,05,24,03,33,10.80
2008,05,24,03,34,10.80
2008,05,24,03,35,10.80
2008,05,24,03,36,10.80
2008,05,24,03,37,10.80
2008,05,24,03,38,10.80
2008,05,24,03,39,10.80
2008,05,24,03,40,10.80
2008,05,24,03,41,10.80
2008,05,24,03,42,10.90
2008,05,24,03,43,10.90
2008,05,24,03,44,10.90
2008,05,24,03,45,10.90
2008,05,24,03,46,10.90
2008,05,24,03,47,10.90
2008,05,24,03,48,10.90
2008,05,24,03,49,11.00
2008,05,24,03,50,11.00
2008,05,24,03,51,11.10
2008,05,24,03,52,11.10
2008,05,24,03,53,11.20
2008,05,24,03,54,11.20
2008,05,24,03,55,11.20
2008,05,24,03,56,11.20
2008,05,24,03,57,11.20
2008,05,24,03,58,11.30
2008,05,24,03,59,11.20
2008,05,24,04,00,11.20
2008,05,24,04,01,11.20
2008,05,24,04,02,11.20
2008,05,24,04,03,11.20
2008,05,24,04,04,11.20
2008,05,24,04,05,11.10
2008,05,24,04,06,11.10
2008,05,24,04,07,11.10
2008,05,24,04,08,11.10
2008,05,24,04,09,11.10
2008,05,24,04,10,11.10
2008,05,24,04,11,11.10
2008,05,24,04,12,11.00
2008,05,24,04,13,11.00
2008,05,24,04,14,11.00
2008,05,24,04,15,11.00
2008,05,24,04,16,11.00
2008,05,24,04,17,11.00
2008,05,24,04,18,11.00
2008,05,24,04,19,11.00
2008,05,24,04,20,11.00
2008,05,24,04,21,11.00
2008,05,24,04,22,11.00
2008,05,24,04,23,11.00
2008,05,24,04,24,11.00
2008,05,24,04,25,11.00
2008,05,24,04,26,11.00
2008,05,24,04,27,11.10
2008,05,24,04,28,11.10
2008,05,24,04,29,11.10
2008,05,24,04,30,11.10
2008,05,24,04,31,11.10
2008,05,24,04,32,11.10
2008,05,24,04,33,11.10
2008,05,24,04,34,11.10
2008,05,24,04,35,11.10
2008,05,24,04,36,11.10
2008,05,24,04,37,11.10
2008,05,24,04,38,11.10
2008,05,24,04,39,11.10
2008,05,24,04,40,11.20
2008,05,24,04,41,11.20
2008,05,24,04,42,11.20
2008,05,24,04,43,11.20
2008,05,24,04,44,11.20
2008,05,24,04,45,11.20
2008,05,24,04,46,11.20
2008,05,24,04,47,11.20
2008,05,24,04,48,11.20
2008,05,24,04,49,11.20
2008,05,24,04,50,11.20
2008,05,24,04,51,11.20
2008,05,24,04,52,11.20
2008,05,24,04,53,11.20
2008,05,24,04,54,11.20
2008,05,24,04,55,11.20
2008,05,24,04,56,11.20
2008,05,24,04,57,11.20
2008,05,24,04,58,11.20
2008,05,24,04,59,11.20
2008,05,24,05,00,11.10
2008,05,24,05,01,11.10
2008,05,24,05,02,11.10
2008,05,24,05,03,11.10
2008,05,24,05,04,11.10
2008,05,24,05,05,11.10
2008,05,24,05,06,11.10
2008,05,24,05,07,11.10
2008,05,24,05,08,11.10
2008,05,24,05,09,11.10
2008,05,24,05,10,11.10
2008,05,24,05,11,11.10
2008,05,24,05,12,11.10
2008,05,24,05,13,11.10
2008,05,24,05,14,11.10
2008,05,24,05,15,11.10
2008,05,24,05,16,11.10
2008,05,24,05,17,11.10
2008,05,24,05,18,11.10
2008,05,24,05,19,11.10
2008,05,24,05,20,11.10
2008,05,24,05,21,11.10
2008,05,24,05,22,11.10
2008,05,24,05,23,11.10
2008,05,24,05,24,11.10
2008,05,24,05,25,11.00
2008,05,24,05,26,11.00
2008,05,24,05,27,11.00
2008,05,24,05,28,11.00
2008,05,24,05,29,11.00
2008,05,24,05,30,11.00
2008,05,24,05,31,10.90
2008,05,24,05,32,10.90
2008,05,24,05,33,10.90
2008,05,24,05,34,10.90
2008,05,24,05,35,10.90
2008,05,24,05,36,10.90
2008,05,24,05,37,10.90
2008,05,24,05,38,10.90
2008,05,24,05,39,10.90
2008,05,24,05,40,10.90
2008,05,24,05,41,10.90
2008,05,24,05,42,10.90
2008,05,24,05,43,10.80
2008,05,24,05,44,10.80
2008,05,24,05,45,10.80
2008,05,24,05,46,10.80
2008,05,24,05,47,10.80
2008,05,24,05,48,10.80
2008,05,24,05,49,10.90
2008,05,24,05,50,10.90
2008,05,24,05,51,10.90
2008,05,24,05,52,10.90
2008,05,24,05,53,10.90
2008,05,24,05,54,10.90
2008,05,24,05,55,10.90
2008,05,24,05,56,10.90
2008,05,24,05,57,11.00
2008,05,24,05,58,11.00
2008,05,24,05,59,11.00
2008,05,24,06,00,11.10
2008,05,24,06,01,11.10
2008,05,24,06,02,11.10
2008,05,24,06,03,11.10
2008,05,24,06,04,11.10
2008,05,24,06,05,11.10
2008,05,24,06,06,11.10
2008,05,24,06,07,11.20
2008,05,24,06,08,11.20
2008,05,24,06,09,11.20
2008,05,24,06,10,11.20
2008,05,24,06,11,11.30
2008,05,24,06,12,11.30
2008,05,24,06,13,11.30
2008,05,24,06,14,11.40
2008,05,24,06,15,11.40
2008,05,24,06,16,11.40
2008,05,24,06,17,11.50
2008,05,24,06,18,11.50
2008,05,24,06,19,11.60
2008,05,24,06,20,11.60
2008,05,24,06,21,11.60
2008,05,24,06,22,11.70
2008,05,24,06,23,11.70
2008,05,24,06,24,11.70
2008,05,24,06,25,11.70
2008,05,24,06,26,11.80
2008,05,24,06,27,11.80
2008,05,24,06,28,11.80
2008,05,24,06,29,11.80
2008,05,24,06,30,11.80
2008,05,24,06,31,11.80
2008,05,24,06,32,11.80
2008,05,24,06,33,11.80
2008,05,24,06,34,11.80
2008,05,24,06,35,11.80
2008,05,24,06,36,11.80
2008,05,24,06,37,11.80
2008,05,24,06,38,11.80
2008,05,24,06,39,11.70
2008,05,24,06,40,11.70
2008,05,24,06,41,11.70
2008,05,24,06,42,11.70
2008,05,24,06,43,11.70
2008,05,24,06,44,11.70
2008,05,24,06,45,11.70
2008,05,24,06,46,11.70
2008,05,24,06,47,11.70
2008,05,24,06,48,11.70
2008,05,24,06,49,11.70
2008,05,24,06,50,11.70
2008,05,24,06,51,11.70
2008,05,24,06,52,11.70
2008,05,24,06,53,11.70
2008,05,24,06,54,11.70
2008,05,24,06,55,11.70
2008,05,24,06,56,11.80
2008,05,24,06,57,11.80
2008,05,24,06,58,11.80
2008,05,24,06,59,11.80
2008,05,24,07,00,11.80
2008,05,24,07,01,11.80
2008,05,24,07,02,11.80
2008,05,24,07,03,11.90
2008,05,24,07,04,11.90
2008,05,24,07,05,11.90
2008,05,24,07,06,11.90
2008,05,24,07,07,11.90
2008,05,24,07,08,12.00
2008,05,24,07,09,12.00
2008,05,24,07,10,12.00
2008,05,24,07,11,12.00
2008,05,24,07,12,12.00
2008,05,24,07,13,12.00
2008,05,24,07,14,12.00
2008,05,24,07,15,12.00
2008,05,24,07,16,12.00
2008,05,24,07,17,12.00
2008,05,24,07,18,11.90
2008,05,24,07,19,11.90
2008,05,24,07,20,11.90
2008,05,24,07,21,11.90
2008,05,24,07,22,11.90
2008,05,24,07,23,11.90
2008,05,24,07,24,11.90
2008,05,24,07,25,11.90
2008,05,24,07,26,12.00
2008,05,24,07,27,12.00
2008,05,24,07,28,12.10
2008,05,24,07,29,12.10
2008,05,24,07,30,12.10
2008,05,24,07,31,12.10
2008,05,24,07,32,12.10
2008,05,24,07,33,12.10
2008,05,24,07,34,12.10
2008,05,24,07,35,12.10
2008,05,24,07,36,12.10
2008,05,24,07,37,12.10
2008,05,24,07,38,12.10
2008,05,24,07,39,12.10
2008,05,24,07,40,12.10
2008,05,24,07,41,12.10
2008,05,24,07,42,12.10
2008,05,24,07,43,12.10
2008,05,24,07,44,12.10
2008,05,24,07,45,12.10
2008,05,24,07,46,12.10
2008,05,24,07,47,12.10
2008,05,24,07,48,12.20
2008,05,24,07,49,12.20
2008,05,24,07,50,12.20
2008,05,24,07,51,12.20
2008,05,24,07,52,12.20
2008,05,24,07,53,12.20
2008,05,24,07,54,12.20
2008,05,24,07,55,12.20
2008,05,24,07,56,12.20
2008,05,24,07,57,12.20
2008,05,24,07,58,12.20
2008,05,24,07,59,12.30
2008,05,24,08,00,12.30
2008,05,24,08,01,12.30
2008,05,24,08,02,12.30
2008,05,24,08,03,12.40
2008,05,24,08,04,12.40
2008,05,24,08,05,12.50
2008,05,24,08,06,12.50
2008,05,24,08,07,12.60
2008,05,24,08,08,12.60
2008,05,24,08,09,12.70
2008,05,24,08,10,12.70
2008,05,24,08,11,12.70
2008,05,24,08,12,12.70
2008,05,24,08,13,12.80
2008,05,24,08,14,12.80
2008,05,24,08,15,12.80
2008,05,24,08,16,12.90
2008,05,24,08,17,12.90
2008,05,24,08,18,12.90
2008,05,24,08,19,12.90
2008,05,24,08,20,12.90
2008,05,24,08,21,13.00
2008,05,24,08,22,13.00
2008,05,24,08,23,13.00
2008,05,24,08,24,13.00
2008,05,24,08,25,13.00
2008,05,24,08,26,13.00
2008,05,24,08,27,13.10
2008,05,24,08,28,13.10
2008,05,24,08,29,13.10
2008,05,24,08,30,13.10
2008,05,24,08,31,13.20
2008,05,24,08,32,13.20
2008,05,24,08,33,13.20
2008,05,24,08,34,13.30
2008,05,24,08,35,13.30
2008,05,24,08,36,13.30
2008,05,24,08,37,13.30
2008,05,24,08,38,13.40
2008,05,24,08,39,13.40
2008,05,24,08,40,13.40
2008,05,24,08,41,13.40
2008,05,24,08,42,13.40
2008,05,24,08,43,13.40
2008,05,24,08,44,13.40
2008,05,24,08,45,13.40
2008,05,24,08,46,13.50
2008,05,24,08,47,13.50
2008,05,24,08,48,13.50
2008,05,24,08,49,13.60
2008,05,24,08,50,13.60
2008,05,24,08,51,13.60
2008,05,24,08,52,13.60
2008,05,24,08,53,13.70
2008,05,24,08,54,13.60
2008,05,24,08,55,13.60
2008,05,24,08,56,13.60
2008,05,24,08,57,13.50
2008,05,24,08,58,13.40
2008,05,24,08,59,13.40
2008,05,24,09,00,13.40
2008,05,24,09,01,13.30
2008,05,24,09,02,13.30
2008,05,24,09,03,13.40
2008,05,24,09,04,13.40
2008,05,24,09,05,13.40
2008,05,24,09,06,13.40
2008,05,24,09,07,13.50
2008,05,24,09,08,13.50
2008,05,24,09,09,13.50
2008,05,24,09,10,13.60
2008,05,24,09,11,13.60
2008,05,24,09,12,13.60
2008,05,24,09,13,13.70
2008,05,24,09,14,13.70
2008,05,24,09,15,13.80
2008,05,24,09,16,13.80
2008,05,24,09,17,13.90
2008,05,24,09,18,13.90
2008,05,24,09,19,14.00
2008,05,24,09,20,14.00
2008,05,24,09,21,14.10
2008,05,24,09,22,14.10
2008,05,24,09,23,14.10
2008,05,24,09,24,14.20
2008,05,24,09,25,14.20
2008,05,24,09,26,14.20
2008,05,24,09,27,14.30
2008,05,24,09,28,14.30
2008,05,24,09,29,14.30
2008,05,24,09,30,14.40
2008,05,24,09,31,14.40
2008,05,24,09,32,14.40
2008,05,24,09,33,14.50
2008,05,24,09,34,14.50
2008,05,24,09,35,14.60
2008,05,24,09,36,14.60
2008,05,24,09,37,14.60
2008,05,24,09,38,14.70
2008,05,24,09,39,14.70
2008,05,24,09,40,14.70
2008,05,24,09,41,14.80
2008,05,24,09,42,14.80
2008,05,24,09,43,14.80
2008,05,24,09,44,14.80
2008,05,24,09,45,14.80
2008,05,24,09,46,14.70
2008,05,24,09,47,14.70
2008,05,24,09,48,14.70
2008,05,24,09,49,14.70
2008,05,24,09,50,14.70
2008,05,24,09,51,14.80
2008,05,24,09,52,14.80
2008,05,24,09,53,14.80
2008,05,24,09,54,14.90
2008,05,24,09,55,15.00
2008,05,24,09,56,15.00
2008,05,24,09,57,15.00
2008,05,24,09,58,15.00
2008,05,24,09,59,15.00
2008,05,24,10,00,15.10
2008,05,24,10,01,15.20
2008,05,24,10,02,15.30
2008,05,24,10,03,15.30
2008,05,24,10,04,15.30
2008,05,24,10,05,15.30
2008,05,24,10,06,15.30
2008,05,24,10,07,15.30
2008,05,24,10,08,15.30
2008,05,24,10,09,15.30
2008,05,24,10,10,15.40
2008,05,24,10,11,15.40
2008,05,24,10,12,15.40
2008,05,24,10,13,15.40
2008,05,24,10,14,15.40
2008,05,24,10,15,15.40
2008,05,24,10,16,15.50
2008,05,24,10,17,15.50
2008,05,24,10,18,15.60
2008,05,24,10,19,15.70
2008,05,24,10,20,15.80
2008,05,24,10,21,15.90
2008,05,24,10,22,16.00
2008,05,24,10,23,16.20
2008,05,24,10,24,16.30
2008,05,24,10,25,16.40
2008,05,24,10,26,16.60
2008,05,24,10,27,16.60
2008,05,24,10,28,16.80
2008,05,24,10,29,16.90
2008,05,24,10,30,17.10
2008,05,24,10,31,17.30
2008,05,24,10,32,17.40
2008,05,24,10,33,17.50
2008,05,24,10,34,17.70
2008,05,24,10,35,17.80
2008,05,24,10,36,17.80
2008,05,24,10,37,17.80
2008,05,24,10,38,17.80
2008,05,24,10,39,17.90
2008,05,24,10,40,17.80
2008,05,24,10,41,17.80
2008,05,24,10,42,17.80
2008,05,24,10,43,17.80
2008,05,24,10,44,17.80
2008,05,24,10,45,17.80
2008,05,24,10,46,17.80
2008,05,24,10,47,17.90
2008,05,24,10,48,17.90
2008,05,24,10,49,17.90
2008,05,24,10,50,17.90
2008,05,24,10,51,17.80
2008,05,24,10,52,17.80
2008,05,24,10,53,17.90
2008,05,24,10,54,18.00
2008,05,24,10,55,18.10
2008,05,24,10,56,18.20
2008,05,24,10,57,18.20
2008,05,24,10,58,18.30
2008,05,24,10,59,18.40
2008,05,24,11,00,18.60
2008,05,24,11,01,18.70
2008,05,24,11,02,18.80
2008,05,24,11,03,19.00
2008,05,24,11,04,19.10
2008,05,24,11,05,19.10
2008,05,24,11,06,19.20
2008,05,24,11,07,19.20
2008,05,24,11,08,19.30
2008,05,24,11,09,19.30
2008,05,24,11,10,19.40
2008,05,24,11,11,19.40
2008,05,24,11,12,19.50
2008,05,24,11,13,19.50
2008,05,24,11,14,19.50
2008,05,24,11,15,19.40
2008,05,24,11,16,19.30
2008,05,24,11,17,19.30
2008,05,24,11,18,19.20
2008,05,24,11,19,19.20
2008,05,24,11,20,19.30
2008,05,24,11,21,19.20
2008,05,24,11,22,19.00
2008,05,24,11,23,18.80
2008,05,24,11,24,18.40
2008,05,24,11,25,18.00
2008,05,24,11,26,17.80
2008,05,24,11,27,17.70
2008,05,24,11,28,17.40
2008,05,24,11,29,17.20
2008,05,24,11,30,17.00
2008,05,24,11,31,17.10
2008,05,24,11,32,17.10
2008,05,24,11,33,17.20
2008,05,24,11,34,17.10
2008,05,24,11,35,17.00
2008,05,24,11,36,16.90
2008,05,24,11,37,16.90
2008,05,24,11,38,17.00
2008,05,24,11,39,17.10
2008,05,24,11,40,17.20
2008,05,24,11,41,17.10
2008,05,24,11,42,17.10
2008,05,24,11,43,17.20
2008,05,24,11,44,17.30
2008,05,24,11,45,17.30
2008,05,24,11,46,17.30
2008,05,24,11,47,17.40
2008,05,24,11,48,17.40
2008,05,24,11,49,17.40
2008,05,24,11,50,17.30
2008,05,24,11,51,17.30
2008,05,24,11,52,17.40
2008,05,24,11,53,17.40
2008,05,24,11,54,17.50
2008,05,24,11,55,17.60
2008,05,24,11,56,17.70
2008,05,24,11,57,17.80
2008,05,24,11,58,17.90
2008,05,24,11,59,18.00
2008,05,24,12,00,18.20
2008,05,24,12,01,18.30
2008,05,24,12,02,18.30
2008,05,24,12,03,18.50
2008,05,24,12,04,18.50
2008,05,24,12,05,18.50
2008,05,24,12,06,18.40
2008,05,24,12,07,18.40
2008,05,24,12,08,18.40
2008,05,24,12,09,18.30
2008,05,24,12,10,18.30
2008,05,24,12,11,18.30
2008,05,24,12,12,18.30
2008,05,24,12,13,18.30
2008,05,24,12,14,18.30
2008,05,24,12,15,18.40
2008,05,24,12,16,18.50
2008,05,24,12,17,18.50
2008,05,24,12,18,18.40
2008,05,24,12,19,18.30
2008,05,24,12,20,18.40
2008,05,24,12,21,18.60
2008,05,24,12,22,18.60
2008,05,24,12,23,18.60
2008,05,24,12,24,18.70
2008,05,24,12,25,18.70
2008,05,24,12,26,18.80
2008,05,24,12,27,18.80
2008,05,24,12,28,18.90
2008,05,24,12,29,19.00
2008,05,24,12,30,19.10
2008,05,24,12,31,19.10
2008,05,24,12,32,19.20
2008,05,24,12,33,19.20
2008,05,24,12,34,19.10
2008,05,24,12,35,19.00
2008,05,24,12,36,19.00
2008,05,24,12,37,18.80
2008,05,24,12,38,18.80
2008,05,24,12,39,18.70
2008,05,24,12,40,18.70
2008,05,24,12,41,18.80
2008,05,24,12,42,18.90
2008,05,24,12,43,18.90
2008,05,24,12,44,19.00
2008,05,24,12,45,19.10
2008,05,24,12,46,19.10
2008,05,24,12,47,19.20
2008,05,24,12,48,19.30
2008,05,24,12,49,19.30
2008,05,24,12,50,19.40
2008,05,24,12,51,19.50
2008,05,24,12,52,19.60
2008,05,24,12,53,19.80
2008,05,24,12,54,19.90
2008,05,24,12,55,20.00
2008,05,24,12,56,20.20
2008,05,24,12,57,20.50
2008,05,24,12,58,20.70
2008,05,24,12,59,21.00
2008,05,24,13,00,21.20
2008,05,24,13,01,21.50
2008,05,24,13,02,21.60
2008,05,24,13,03,21.70
2008,05,24,13,04,21.80
2008,05,24,13,05,21.90
2008,05,24,13,06,22.00
2008,05,24,13,07,22.10
2008,05,24,13,08,22.10
2008,05,24,13,09,22.10
2008,05,24,13,10,22.10
2008,05,24,13,11,22.10
2008,05,24,13,12,22.10
2008,05,24,13,13,22.10
2008,05,24,13,14,22.10
2008,05,24,13,15,22.20
2008,05,24,13,16,22.30
2008,05,24,13,17,22.40
2008,05,24,13,18,22.50
2008,05,24,13,19,22.60
2008,05,24,13,20,22.60
2008,05,24,13,21,22.60
2008,05,24,13,22,22.60
2008,05,24,13,23,22.60
2008,05,24,13,24,22.60
2008,05,24,13,25,22.60
2008,05,24,13,26,22.60
2008,05,24,13,27,22.60
2008,05,24,13,28,22.60
2008,05,24,13,29,22.70
2008,05,24,13,30,22.60
2008,05,24,13,31,22.60
2008,05,24,13,32,22.50
2008,05,24,13,33,22.50
2008,05,24,13,34,22.40
2008,05,24,13,35,22.20
2008,05,24,13,36,21.60
2008,05,24,13,37,21.20
2008,05,24,13,38,21.10
2008,05,24,13,39,21.10
2008,05,24,13,40,21.20
2008,05,24,13,41,21.00
2008,05,24,13,42,20.80
2008,05,24,13,43,20.80
2008,05,24,13,44,20.60
2008,05,24,13,45,20.50
2008,05,24,13,46,20.30
2008,05,24,13,47,20.30
2008,05,24,13,48,20.40
2008,05,24,13,49,20.40
2008,05,24,13,50,20.50
2008,05,24,13,51,20.50
2008,05,24,13,52,20.40
2008,05,24,13,53,20.50
2008,05,24,13,54,20.40
2008,05,24,13,55,20.40
2008,05,24,13,56,20.40
2008,05,24,13,57,20.20
2008,05,24,13,58,20.00
2008,05,24,13,59,19.80
2008,05,24,14,00,19.70
2008,05,24,14,01,19.60
2008,05,24,14,02,19.40
2008,05,24,14,03,19.30
2008,05,24,14,04,19.20
2008,05,24,14,05,19.10
2008,05,24,14,06,19.10
2008,05,24,14,07,19.10
2008,05,24,14,08,19.10
2008,05,24,14,09,19.20
2008,05,24,14,10,19.30
2008,05,24,14,11,19.40
2008,05,24,14,12,19.40
2008,05,24,14,13,19.40
2008,05,24,14,14,19.40
2008,05,24,14,15,19.30
2008,05,24,14,16,19.30
2008,05,24,14,17,19.40
2008,05,24,14,18,19.30
2008,05,24,14,19,19.30
2008,05,24,14,20,19.00
2008,05,24,14,21,18.90
2008,05,24,14,22,18.70
2008,05,24,14,23,18.60
2008,05,24,14,24,18.60
2008,05,24,14,25,18.60
2008,05,24,14,26,18.60
2008,05,24,14,27,18.70
2008,05,24,14,28,18.80
2008,05,24,14,29,18.80
2008,05,24,14,30,18.80
2008,05,24,14,31,18.90
2008,05,24,14,32,18.90
2008,05,24,14,33,18.80
2008,05,24,14,34,18.70
2008,05,24,14,35,18.80
2008,05,24,14,36,18.90
2008,05,24,14,37,19.10
2008,05,24,14,38,19.20
2008,05,24,14,39,19.30
2008,05,24,14,40,19.40
2008,05,24,14,41,19.30
2008,05,24,14,42,19.30
2008,05,24,14,43,19.20
2008,05,24,14,44,19.30
2008,05,24,14,45,19.40
2008,05,24,14,46,19.50
2008,05,24,14,47,19.60
2008,05,24,14,48,19.60
2008,05,24,14,49,19.70
2008,05,24,14,50,19.80
2008,05,24,14,51,19.80
2008,05,24,14,52,19.70
2008,05,24,14,53,19.60
2008,05,24,14,54,19.40
2008,05,24,14,55,19.30
2008,05,24,14,56,19.20
2008,05,24,14,57,19.10
2008,05,24,14,58,19.10
2008,05,24,14,59,19.10
2008,05,24,15,00,19.10
2008,05,24,15,01,19.20
2008,05,24,15,02,19.30
2008,05,24,15,03,19.30
2008,05,24,15,04,19.10
2008,05,24,15,05,19.10
2008,05,24,15,06,18.90
2008,05,24,15,07,18.90
2008,05,24,15,08,18.90
2008,05,24,15,09,18.90
2008,05,24,15,10,19.00
2008,05,24,15,11,19.00
2008,05,24,15,12,18.90
2008,05,24,15,13,18.90
2008,05,24,15,14,19.00
2008,05,24,15,15,19.10
2008,05,24,15,16,19.20
2008,05,24,15,17,19.30
2008,05,24,15,18,19.40
2008,05,24,15,19,19.40
2008,05,24,15,20,19.40
2008,05,24,15,21,19.40
2008,05,24,15,22,19.30
2008,05,24,15,23,19.30
2008,05,24,15,24,19.30
2008,05,24,15,25,19.30
2008,05,24,15,26,19.40
2008,05,24,15,27,19.40
2008,05,24,15,28,19.50
2008,05,24,15,29,19.60
2008,05,24,15,30,19.70
2008,05,24,15,31,19.70
2008,05,24,15,32,19.80
2008,05,24,15,33,19.80
2008,05,24,15,34,19.80
2008,05,24,15,35,19.70
2008,05,24,15,36,19.70
2008,05,24,15,37,19.60
2008,05,24,15,38,19.50
2008,05,24,15,39,19.50
2008,05,24,15,40,19.50
2008,05,24,15,41,19.50
2008,05,24,15,42,19.50
2008,05,24,15,43,19.60
2008,05,24,15,44,19.70
2008,05,24,15,45,19.80
2008,05,24,15,46,19.80
2008,05,24,15,47,20.00
2008,05,24,15,48,20.00
2008,05,24,15,49,20.00
2008,05,24,15,50,20.00
2008,05,24,15,51,20.10
2008,05,24,15,52,20.10
2008,05,24,15,53,20.00
2008,05,24,15,54,20.10
2008,05,24,15,55,20.20
2008,05,24,15,56,20.30
2008,05,24,15,57,20.30
2008,05,24,15,58,20.20
2008,05,24,15,59,20.20
2008,05,24,16,00,20.20
2008,05,24,16,01,20.30
2008,05,24,16,02,20.30
2008,05,24,16,03,20.30
2008,05,24,16,04,20.30
2008,05,24,16,05,20.30
2008,05,24,16,06,20.40
2008,05,24,16,07,20.40
2008,05,24,16,08,20.40
2008,05,24,16,09,20.40
2008,05,24,16,10,20.40
2008,05,24,16,11,20.30
2008,05,24,16,12,20.30
2008,05,24,16,13,20.30
2008,05,24,16,14,20.30
2008,05,24,16,15,20.40
2008,05,24,16,16,20.40
2008,05,24,16,17,20.40
2008,05,24,16,18,20.40
2008,05,24,16,19,20.40
2008,05,24,16,20,20.50
2008,05,24,16,21,20.50
2008,05,24,16,22,20.60
2008,05,24,16,23,20.60
2008,05,24,16,24,20.80
2008,05,24,16,25,20.80
2008,05,24,16,26,20.90
2008,05,24,16,27,20.90
2008,05,24,16,28,21.00
2008,05,24,16,29,21.10
2008,05,24,16,30,21.20
2008,05,24,16,31,21.30
2008,05,24,16,32,21.40
2008,05,24,16,33,21.60
2008,05,24,16,34,21.80
2008,05,24,16,35,21.90
2008,05,24,16,36,22.00
2008,05,24,16,37,22.10
2008,05,24,16,38,22.20
2008,05,24,16,39,22.30
2008,05,24,16,40,22.30
2008,05,24,16,41,22.40
2008,05,24,16,42,22.50
2008,05,24,16,43,22.60
2008,05,24,16,44,22.60
2008,05,24,16,45,22.70
2008,05,24,16,46,22.70
2008,05,24,16,47,22.70
2008,05,24,16,48,22.60
2008,05,24,16,49,22.70
2008,05,24,16,50,22.70
2008,05,24,16,51,22.80
2008,05,24,16,52,22.70
2008,05,24,16,53,22.60
2008,05,24,16,54,22.50
2008,05,24,16,55,22.30
2008,05,24,16,56,22.10
2008,05,24,16,57,22.00
2008,05,24,16,58,21.90
2008,05,24,16,59,21.90
2008,05,24,17,00,21.90
2008,05,24,17,01,22.00
2008,05,24,17,02,22.20
2008,05,24,17,03,22.20
2008,05,24,17,04,22.30
2008,05,24,17,05,22.30
2008,05,24,17,06,22.20
2008,05,24,17,07,22.20
2008,05,24,17,08,22.30
2008,05,24,17,09,22.40
2008,05,24,17,10,22.50
2008,05,24,17,11,22.60
2008,05,24,17,12,22.60
2008,05,24,17,13,22.70
2008,05,24,17,14,22.70
2008,05,24,17,15,22.80
2008,05,24,17,16,22.90
2008,05,24,17,17,22.90
2008,05,24,17,18,22.90
2008,05,24,17,19,22.90